Wind_Speed
22 22 22 21 22 21 21 21 21 21 21 21 21 22 24 26 26 26 24 22 22 21 21 20 18 18 19 19 19 20 21 17 13 10 16 23 18 16 14 6 15 22 19 19 23 22 21 19 18 19 14 10 8 7 9 8 5 5 5 5 4 3 1 3 4 5 3 4 3 3 6 5 6 8 6 6 7 8 10 8 7 8 4 5 13 23 29 30
22 22 22 22 22 22 22 22 22 22 22 21 22 25 28 29 29 28 25 24 24 22 21 21 19 18 18 18 18 19 19 16 15 17 26 30 21 18 15 12 18 24 23 22 25 24 21 17 18 18 12 8 7 8 9 8 7 7 5 4 4 0 3 3 3 5 5 7 5 1 6 6 5 7 7 7 8 10 11 10 10 10 9 10 17 25 28 30
23 24 24 23 24 24 24 23 23 23 22 22 24 29 31 32 32 28 26 26 24 23 21 20 19 18 17 17 17 16 16 15 15 18 24 22 21 24 17 18 23 26 26 23 24 24 20 18 20 17 11 8 7 9 9 8 8 8 6 5 4 0 0 1 1 3 6 8 6 2 4 5 4 6 7 6 7 10 9 9 12 12 13 14 19 24 28 30
24 25 25 24 24 25 25 24 24 24 23 25 29 32 33 34 32 27 27 26 23 22 20 19 18 17 16 16 14 13 12 13 11 6 5 2 7 14 17 23 27 28 26 22 22 20 18 19 20 16 12 9 8 9 9 9 7 6 7 6 2 0 3 2 0 2 5 8 7 4 3 5 4 5 7 5 4 6 7 10 13 13 16 18 20 23 27 28
25 25 26 25 25 25 26 25 24 24 26 30 33 35 35 35 31 28 27 25 23 21 20 18 16 15 14 12 10 9 9 8 2 6 10 9 10 6 13 25 30 29 25 20 19 19 18 19 17 14 11 8 9 9 10 12 8 6 8 8 5 3 3 3 1 3 4 7 5 2 0 2 5 6 7 7 5 2 2 8 12 14 18 20 22 23 25 26
26 27 27 27 27 27 27 26 27 28 32 35 36 36 37 35 31 29 26 25 24 22 20 17 15 14 11 7 6 5 7 4 4 8 11 8 7 4 8 24 31 28 24 21 19 19 18 18 16 13 10 10 12 12 11 13 11 7 8 9 8 8 6 3 5 5 6 7 5 3 2 1 5 7 7 10 8 1 3 5 10 13 18 21 23 23 24 25
27 28 28 28 28 28 28 29 32 34 37 38 38 38 38 35 30 29 27 26 26 23 20 17 14 12 6 2 2 4 8 12 9 4 6 3 5 5 6 24 31 27 23 22 20 18 17 18 17 13 11 11 12 13 11 12 13 10 8 8 8 9 9 8 7 8 8 8 7 5 4 4 7 6 6 9 10 3 2 5 10 14 18 21 22 21 22 23
28 28 28 28 28 29 31 33 36 38 39 39 39 39 37 33 30 30 29 28 26 23 20 15 12 9 3 1 5 7 10 18 17 9 11 15 10 4 11 25 30 27 25 25 22 20 18 19 18 13 12 12 10 12 10 10 14 14 12 8 7 8 8 9 9 9 10 8 7 7 8 7 7 6 6 8 10 6 3 8 14 16 19 20 21 21 20 21
28 29 29 29 29 30 33 35 37 39 41 41 40 38 35 32 31 31 30 28 25 22 18 13 11 6 5 5 6 8 11 14 14 12 15 15 9 9 20 27 29 28 25 25 25 23 18 16 19 14 12 11 10 11 11 9 9 12 14 11 9 10 9 10 10 11 10 7 7 9 10 8 7 7 7 8 9 7 8 12 16 18 19 19 19 20 20 20
29 29 29 30 31 32 35 37 39 41 42 42 40 36 33 32 32 32 30 25 21 18 14 11 10 7 7 7 8 8 7 4 5 8 10 9 12 20 26 28 31 28 24 24 24 24 19 16 19 14 9 10 10 10 12 11 5 5 11 12 11 12 10 10 11 12 10 9 10 11 11 8 6 7 6 7 10 11 12 14 16 17 18 18 18 18 19 19
29 29 30 31 31 32 36 40 41 42 43 42 39 35 33 33 33 31 25 19 17 15 11 10 10 12 10 8 10 8 2 1 4 4 3 9 19 25 27 27 31 30 25 23 23 26 22 19 18 11 6 7 10 10 12 13 7 5 7 9 12 13 12 12 13 13 10 9 10 10 11 9 6 9 7 5 12 15 14 15 17 17 16 17 18 18 16 17
29 29 29 31 31 32 38 42 43 44 44 41 37 33 33 34 31 24 18 16 15 12 9 11 14 14 10 7 13 13 2 3 3 2 3 10 18 21 21 23 28 28 25 22 22 26 23 19 18 13 7 5 9 9 8 12 11 9 9 10 12 12 13 14 14 13 11 9 8 7 9 10 10 13 11 8 13 15 15 16 17 16 16 16 17 16 15 16
29 29 30 31 31 34 41 43 44 44 44 41 35 32 33 31 23 16 16 15 12 9 8 13 15 13 10 7 12 17 11 4 1 4 6 9 12 12 13 18 24 23 22 21 21 24 21 17 19 16 9 6 8 4 1 9 10 10 10 10 10 10 12 14 14 14 13 9 7 7 7 8 12 14 11 11 15 16 15 16 16 15 15 15 16 15 15 17
30 30 31 32 33 39 43 44 45 44 43 39 32 31 31 23 14 13 14 11 7 4 10 15 15 11 9 9 8 11 14 10 7 6 7 10 11 9 11 17 19 18 18 18 17 20 18 16 18 14 10 9 6 3 2 7 8 9 10 9 8 8 8 9 9 10 11 8 8 10 7 5 8 11 11 12 15 16 15 16 16 15 15 15 16 15 16 17
31 32 32 34 38 43 44 45 45 44 43 35 29 31 25 13 9 10 9 7 3 8 14 14 12 8 6 12 10 10 12 12 15 16 11 11 12 10 13 18 16 15 14 12 12 15 15 16 15 11 10 10 5 5 8 7 6 8 8 8 9 8 7 8 9 9 10 8 10 11 8 6 5 8 11 12 14 16 14 15 16 16 17 16 15 16 15 16
32 33 35 38 42 44 44 45 45 44 40 30 29 28 15 6 6 8 9 9 9 13 14 9 9 8 6 5 4 6 11 12 16 20 18 15 12 9 15 18 14 13 12 9 9 11 13 13 12 10 10 10 8 7 8 8 8 8 8 9 9 10 10 8 9 10 11 8 11 12 8 7 4 6 10 12 13 15 13 14 16 16 17 16 15 15 15 15
33 35 39 42 43 44 45 44 44 43 34 27 29 21 8 4 2 7 9 9 8 8 6 4 7 8 7 4 3 5 11 13 11 16 21 21 15 9 14 16 13 14 12 10 10 10 12 11 9 9 9 9 10 9 9 10 9 8 8 9 9 10 10 8 8 8 10 9 11 13 11 10 5 4 8 11 12 13 12 13 16 16 15 15 14 15 15 16
34 36 41 43 43 45 45 45 44 38 29 27 25 14 5 3 2 2 3 3 3 5 5 3 7 6 7 9 6 2 6 11 10 13 19 23 19 14 15 14 12 15 12 9 11 11 11 10 8 9 10 10 11 11 11 11 10 10 10 9 9 10 10 10 7 8 9 9 10 11 11 12 11 7 7 10 10 11 12 11 13 15 15 15 14 15 15 16
34 37 42 43 44 45 44 46 41 31 28 26 19 9 5 4 5 4 5 6 5 6 3 4 10 5 2 6 8 3 3 5 9 12 16 20 21 18 17 14 13 16 13 9 12 13 10 9 10 10 11 13 14 14 14 11 8 10 12 10 11 10 10 12 8 5 6 8 10 11 11 11 11 8 7 9 10 11 11 11 11 13 15 15 15 14 15 17
36 40 43 43 45 45 45 44 34 26 26 21 16 10 5 4 4 4 3 8 11 12 12 7 13 12 6 2 3 4 5 5 8 12 16 19 22 20 16 14 14 15 13 11 12 13 11 10 12 13 14 16 17 17 16 14 8 8 10 10 12 11 9 11 9 5 4 7 9 11 11 11 9 8 7 8 10 10 11 12 12 13 14 15 16 16 17 16
38 41 43 44 45 44 45 41 28 22 19 14 14 8 2 8 6 4 8 12 15 16 20 18 17 19 16 7 1 1 4 7 10 12 16 21 22 19 15 15 16 13 14 15 13 11 12 13 15 16 16 15 16 18 17 16 13 9 9 9 10 12 10 10 7 5 4 7 9 10 11 12 11 11 9 7 10 10 11 13 13 15 15 14 16 18 16 14
39 42 43 44 44 43 44 35 22 20 16 10 10 7 7 8 6 7 9 11 14 15 20 22 20 20 20 20 12 5 5 7 11 12 17 21 21 18 15 17 16 14 16 16 12 11 13 15 17 17 16 15 14 16 17 17 15 11 9 9 9 10 10 11 8 6 6 6 8 10 11 11 11 11 9 8 10 10 10 12 14 15 16 15 16 16 16 15
40 43 43 44 44 43 41 29 18 19 14 8 10 9 6 7 7 9 8 9 15 14 17 20 20 19 19 20 18 14 11 10 12 14 19 21 19 18 17 18 18 16 18 19 15 13 12 13 18 18 16 17 15 14 16 15 13 11 11 10 10 10 9 8 8 8 6 6 9 10 10 10 10 11 11 11 11 10 10 12 13 14 15 15 15 15 15 17
41 42 42 44 43 43 38 21 13 16 10 5 8 8 8 9 9 10 7 8 12 11 12 17 16 16 17 13 12 17 16 13 12 13 20 21 17 16 17 18 19 17 17 23 22 17 13 9 14 19 18 18 17 15 16 13 10 13 14 13 11 12 12 9 5 5 5 7 10 10 9 10 11 12 13 11 11 11 10 11 13 13 14 14 14 14 16 17
42 42 41 43 42 42 32 11 9 17 11 3 6 11 12 11 10 9 7 6 8 6 7 12 10 10 13 11 11 15 13 13 15 13 18 21 18 16 15 14 15 17 20 24 22 17 16 9 10 19 19 18 18 16 16 14 10 13 16 18 16 13 13 12 8 6 6 8 9 10 10 10 11 14 13 9 9 11 9 10 13 13 13 13 14 15 16 17
42 41 41 41 40 39 25 5 10 19 11 3 10 17 15 12 10 8 6 5 7 5 6 7 6 7 10 11 12 12 9 13 17 15 16 21 20 14 13 11 10 16 20 19 15 10 13 13 11 17 19 19 19 15 16 16 11 10 12 16 18 16 15 13 11 9 7 8 6 8 9 9 9 13 11 8 9 10 10 11 13 13 13 13 13 14 15 16
42 41 41 40 37 32 17 7 14 16 7 8 17 20 16 12 10 6 4 5 6 4 7 3 3 6 8 9 14 13 5 6 13 18 18 20 20 15 14 15 12 15 15 12 11 10 13 17 15 17 18 17 16 14 16 17 12 10 9 11 16 18 18 15 12 10 8 8 7 8 10 9 9 11 9 9 10 11 11 12 13 13 14 15 15 16 16 17
41 41 40 38 33 23 11 10 14 11 9 16 21 19 15 12 7 5 5 5 2 6 6 3 3 4 4 8 17 14 3 6 10 16 21 23 21 15 15 19 17 17 17 13 12 12 15 20 19 19 17 13 13 14 16 18 14 10 7 7 10 14 16 14 11 10 9 9 10 11 12 10 10 10 10 11 12 12 12 13 14 15 16 16 16 17 18 18
41 41 38 37 30 15 9 11 11 10 15 20 20 18 15 10 6 4 5 5 2 4 2 3 4 5 6 9 16 15 4 3 4 9 20 23 21 16 12 17 18 18 20 18 14 11 12 17 19 18 15 12 13 14 16 18 15 11 8 6 7 10 12 12 10 9 9 12 13 13 13 11 10 10 11 12 13 13 13 12 14 15 16 17 17 18 19 18
41 40 38 36 26 13 11 11 9 12 20 21 20 20 14 7 5 5 7 5 1 3 2 4 4 4 8 9 12 15 12 7 2 8 16 17 21 18 10 12 16 14 17 17 17 14 9 11 15 15 14 13 12 12 15 17 16 13 10 8 8 9 9 9 9 8 10 12 14 15 16 13 11 10 10 11 12 13 13 12 13 14 16 17 17 17 18 17
41 40 37 31 19 13 13 11 11 18 21 23 22 18 10 5 5 7 7 1 2 1 2 4 2 2 6 6 6 12 15 10 4 11 14 13 18 18 11 11 12 11 14 14 16 18 12 11 12 14 15 15 13 12 12 15 16 13 10 9 8 7 7 7 7 8 11 11 10 14 17 16 14 10 9 12 14 15 13 13 13 14 16 17 16 16 17 17
41 39 33 22 11 9 10 13 19 21 21 24 21 12 6 5 8 10 6 2 1 1 3 3 1 2 4 6 7 9 13 11 8 12 14 13 15 16 15 14 11 12 14 13 14 17 16 12 12 14 17 17 14 12 10 12 14 13 10 10 9 7 7 8 9 9 11 10 9 11 15 16 14 11 10 12 14 15 14 13 14 14 15 16 16 16 15 16
40 37 28 16 7 7 11 16 20 19 20 23 15 6 6 8 8 7 7 5 2 6 8 7 8 9 8 8 6 9 11 11 11 13 14 15 15 17 19 19 17 15 11 11 13 13 13 13 16 16 14 17 18 12 10 11 13 13 11 10 10 8 8 9 9 9 9 9 10 11 10 11 12 10 14 17 14 13 13 12 13 13 13 14 16 16 15 16
38 31 22 13 6 8 13 17 17 17 20 18 9 6 9 11 7 3 5 4 7 10 10 11 13 12 10 8 4 5 8 10 12 13 14 15 14 14 17 20 22 17 9 10 12 12 14 12 17 19 12 16 21 16 12 11 11 14 12 10 10 8 8 7 7 8 9 8 11 12 8 8 7 3 7 15 15 15 14 14 14 14 14 13 14 15 15 17
35 25 15 8 5 10 15 17 17 16 15 11 6 7 9 10 7 5 3 7 10 11 13 15 14 11 8 7 4 3 4 6 12 14 12 14 14 13 15 17 22 19 12 11 9 12 17 11 13 20 15 16 22 18 15 13 11 12 12 11 11 9 8 5 4 6 6 6 9 11 8 6 3 1 1 6 10 14 15 15 15 16 16 15 14 15 15 15
29 19 11 5 7 14 17 17 16 14 11 7 6 7 8 8 5 4 6 10 11 12 16 14 9 8 8 6 6 5 2 2 9 12 10 13 13 12 13 11 14 16 10 10 9 9 13 9 11 20 19 18 21 19 18 15 9 9 12 13 11 10 9 7 5 4 4 7 7 8 9 7 5 5 7 9 9 11 13 13 14 14 14 14 13 13 14 15
22 18 10 5 11 17 17 17 14 11 8 6 7 7 5 6 5 7 8 11 12 12 13 9 3 4 6 5 4 5 2 3 8 9 9 13 9 2 3 2 1 3 2 4 7 8 9 8 11 19 21 19 19 20 20 18 12 8 10 13 10 10 10 8 7 6 7 9 7 9 12 10 8 6 8 14 15 12 13 13 13 13 12 13 12 13 14 15
19 18 9 6 17 20 17 16 12 8 6 5 8 8 5 6 7 10 11 12 13 12 9 7 4 4 4 3 1 1 2 3 8 9 9 11 5 4 3 1 3 3 5 4 4 6 8 7 9 16 20 18 17 17 17 19 19 12 8 11 11 10 10 8 7 8 9 9 7 10 12 10 9 6 4 11 16 15 15 14 13 14 13 13 13 14 15 15
17 13 4 11 22 21 18 15 10 6 5 5 7 5 4 7 9 11 12 12 12 10 9 9 7 5 5 6 6 4 4 4 2 6 7 5 2 4 5 2 2 5 5 4 5 3 6 7 6 13 18 16 15 14 12 15 18 15 10 10 10 8 8 9 8 7 8 8 7 9 10 8 8 9 8 9 10 12 13 13 13 14 14 13 13 13 14 14
13 7 3 17 25 23 21 15 9 4 4 5 5 5 7 9 10 11 12 12 11 9 9 10 9 8 7 8 8 5 5 6 4 4 3 2 2 5 8 6 4 6 5 4 7 4 5 8 4 10 17 16 12 12 14 15 15 14 12 12 11 9 6 7 9 9 8 7 6 6 7 4 1 5 11 13 12 12 12 12 12 13 14 14 13 13 13 13
11 5 5 19 25 24 21 11 4 4 4 4 5 7 9 9 10 11 12 12 10 9 10 12 11 10 9 9 8 6 6 6 4 3 1 2 3 4 7 9 7 6 4 5 8 5 4 8 6 7 12 12 12 13 17 17 16 15 12 12 12 11 9 8 9 10 9 8 7 6 6 3 3 3 5 7 9 11 12 12 11 12 13 12 12 12 12 12
8 5 9 18 22 23 16 5 3 5 3 5 7 8 9 8 10 11 11 11 10 8 9 11 12 11 11 10 9 7 6 6 5 3 2 4 6 7 7 9 9 6 4 4 6 2 2 5 8 8 8 10 12 15 18 19 19 17 14 13 13 12 11 9 7 8 8 9 8 7 7 3 4 4 2 2 4 6 8 10 9 10 11 10 10 10 9 9
5 8 12 15 18 19 11 3 5 5 4 8 9 8 8 8 10 11 10 10 10 8 7 9 10 11 10 9 9 9 7 4 3 2 1 5 7 8 9 10 10 6 4 2 2 1 2 5 8 8 7 7 8 12 15 18 18 17 15 14 14 14 13 10 8 6 7 9 9 7 8 4 4 4 3 3 5 5 5 7 7 7 6 7 8 6 4 6
6 8 8 10 14 14 7 4 6 6 6 10 11 9 8 7 9 11 10 9 9 8 9 8 8 9 9 9 9 9 7 5 1 1 1 3 6 7 9 10 10 7 4 4 3 0 4 8 10 9 7 7 8 9 13 16 15 12 13 17 18 18 18 14 10 8 7 9 10 8 7 3 4 4 3 3 5 5 3 4 4 4 3 3 4 2 3 5
7 5 4 9 11 8 5 5 6 6 8 11 11 10 9 8 8 10 11 9 8 10 10 8 9 11 10 9 11 10 7 7 3 1 0 3 5 6 8 9 9 8 8 9 8 4 3 6 10 11 10 11 11 9 8 11 13 11 12 18 20 21 21 15 10 10 8 9 10 9 6 3 7 5 5 5 6 5 3 2 2 2 3 2 1 0 2 4
6 5 6 8 6 4 4 4 6 7 8 10 9 9 10 9 7 8 10 7 8 12 11 7 10 12 10 9 9 10 7 6 4 1 1 1 3 4 6 7 7 9 11 12 9 5 4 4 5 5 4 4 2 2 3 2 11 16 16 16 16 19 21 16 11 10 8 8 10 10 8 4 7 8 8 7 6 3 2 2 2 1 0 1 0 1 1 3
5 5 7 7 5 5 5 5 7 7 8 9 7 7 10 10 8 7 7 5 7 11 9 6 11 11 11 13 9 7 6 5 4 1 1 2 3 3 3 4 6 9 11 10 8 5 4 5 4 2 2 2 4 5 6 4 6 14 16 16 15 17 18 16 14 11 8 8 9 10 12 11 9 9 8 6 4 2 2 4 4 2 4 4 3 2 4 4
5 5 7 6 5 6 7 8 9 10 10 9 6 6 10 10 9 8 6 4 6 9 6 5 11 14 13 14 11 6 4 5 4 1 2 4 5 2 1 3 5 8 8 7 8 5 3 4 3 2 2 1 2 3 3 2 1 3 8 12 13 15 16 16 15 13 11 9 7 6 10 13 12 11 10 7 6 6 7 8 9 8 9 8 7 7 9 8
5 5 5 6 7 8 9 10 11 11 10 7 5 5 8 10 10 8 6 6 6 6 7 7 11 14 13 14 11 6 3 3 1 3 5 6 5 4 1 2 4 7 8 6 6 5 4 0 2 2 4 2 2 1 1 1 1 2 5 7 8 11 13 13 14 15 13 11 9 8 8 9 9 10 10 10 9 9 10 10 11 13 14 14 13 14 14 12
5 5 5 7 8 8 9 9 9 10 7 5 4 5 8 10 10 9 8 7 5 6 8 10 12 12 11 11 10 7 7 9 7 6 8 8 4 3 2 1 3 7 7 5 5 5 4 1 2 4 4 4 4 3 2 3 4 5 8 8 9 10 11 12 12 12 12 12 14 14 13 10 7 7 9 9 8 9 9 10 11 12 14 16 16 16 15 13
6 6 5 5 7 8 9 8 8 8 5 3 4 6 8 9 10 11 8 3 3 3 7 10 11 10 8 7 7 7 8 11 10 9 10 9 6 5 4 4 6 7 6 5 5 5 4 1 0 3 5 5 5 5 5 4 6 10 12 12 12 12 12 12 11 11 12 13 14 16 14 10 8 9 11 11 11 13 14 13 13 12 14 15 16 16 16 14
6 6 4 4 6 7 8 8 8 7 5 5 6 8 9 9 8 9 7 2 4 3 6 8 9 8 7 6 5 8 10 11 12 12 10 10 10 8 7 8 8 7 5 5 5 3 4 3 1 2 5 4 5 5 4 3 7 11 12 14 15 14 13 12 12 13 14 13 12 13 11 8 8 9 10 10 11 13 13 12 12 12 13 15 16 16 16 16
Wind_Direction
360 357 354 352 350 348 347 346 344 341 340 338 339 343 345 343 339 336 332 328 327 324 322 321 318 319 317 318 320 320 323 321 300 260 238 254 253 230 240 230 182 171 157 155 154 157 163 174 176 174 178 182 205 194 181 205 204 205 230 240 244 238 99 90 68 49 21 359 32 160 188 186 160 161 147 154 169 149 160 162 144 151 133 110 127 140 151 155
358 355 353 352 349 348 346 344 342 340 339 337 339 344 344 342 339 335 331 328 326 323 322 320 317 316 315 316 318 323 328 312 283 260 254 260 261 247 233 211 187 167 160 161 161 164 166 174 174 173 183 180 191 182 174 192 196 210 230 240 246 207 78 85 51 37 16 358 6 160 193 205 181 159 167 181 169 158 166 161 154 151 134 127 135 143 153 158
357 353 352 350 348 347 345 343 340 339 337 336 340 342 341 340 337 331 328 326 322 321 320 317 316 314 312 314 319 331 328 302 277 261 263 267 253 244 223 197 191 170 167 171 169 172 171 173 172 174 188 188 187 181 181 187 193 216 232 243 250 260 149 180 338 14 21 7 7 61 167 206 187 156 179 195 169 173 183 167 165 162 147 143 144 149 157 163
355 352 350 349 347 346 343 341 339 338 337 338 341 341 340 338 333 325 324 322 317 317 314 312 312 309 309 312 322 338 322 287 275 252 235 210 194 216 206 195 190 176 175 177 174 178 175 170 173 181 192 196 191 188 194 187 189 211 221 242 284 303 223 193 337 354 13 4 8 45 145 201 188 176 196 202 179 192 206 186 178 168 155 151 151 155 162 167
354 351 350 347 346 344 342 340 339 338 338 340 341 340 340 336 329 323 321 321 317 314 310 308 305 304 306 308 327 340 305 276 302 109 124 109 102 138 191 194 188 180 179 179 179 182 178 172 178 192 199 201 188 191 207 196 203 225 219 240 264 256 204 138 339 311 337 336 347 17 286 187 178 200 210 207 204 202 201 188 181 169 158 156 158 159 164 170
352 350 349 347 345 343 341 341 341 341 340 342 341 340 339 333 326 323 321 321 318 313 308 305 300 300 300 311 342 317 263 262 48 113 136 105 69 60 180 189 187 182 181 181 181 182 180 177 182 194 205 208 195 197 208 198 210 236 224 228 238 251 252 258 284 285 302 308 313 324 323 195 200 221 217 212 221 337 54 166 170 162 159 158 159 163 168 173
352 350 348 346 345 343 343 344 345 344 343 343 341 339 336 330 325 323 321 319 315 310 303 298 293 289 292 345 323 245 241 260 279 225 200 252 328 341 183 184 184 184 187 183 181 183 180 181 188 194 202 209 203 203 205 196 208 232 241 230 227 244 254 262 272 273 281 287 290 295 284 237 226 235 215 211 224 234 68 150 151 150 155 157 161 168 172 174
352 350 348 346 343 343 345 345 345 345 344 342 340 338 333 328 326 323 320 315 310 304 295 287 281 276 244 208 249 244 238 251 261 253 255 266 280 294 171 177 182 185 191 187 181 182 181 186 191 193 204 210 206 204 198 195 210 225 241 245 237 244 252 259 262 266 272 275 275 268 261 245 234 246 232 215 215 203 166 147 143 148 156 161 166 170 172 176
351 349 347 345 342 341 344 345 345 344 343 342 339 335 331 329 327 322 317 311 306 297 287 273 263 246 181 206 243 259 249 251 262 258 262 262 242 196 168 170 184 188 191 191 184 182 184 190 193 196 211 212 205 206 199 202 214 218 232 244 249 253 255 259 261 263 265 262 261 256 254 245 231 246 243 223 208 176 153 148 146 153 161 165 169 171 173 177
350 348 346 344 341 340 344 346 344 344 343 340 338 334 332 330 324 319 315 308 301 292 281 257 234 193 181 215 231 249 249 250 287 271 259 231 184 175 171 173 182 187 191 192 188 186 188 192 194 199 224 221 209 211 204 210 225 202 225 243 250 259 259 258 260 258 260 256 252 253 259 255 222 223 231 206 187 166 155 154 154 160 166 169 171 173 175 178
350 348 345 343 340 340 344 346 345 343 341 339 337 335 333 329 322 318 313 305 296 287 272 236 200 181 195 222 229 234 227 259 306 335 263 189 172 172 178 179 179 186 191 189 192 192 194 197 192 194 224 220 205 214 215 218 238 236 238 254 251 257 255 250 252 249 250 248 245 248 258 259 214 208 226 187 166 170 168 161 161 166 169 172 173 173 176 179
349 347 345 343 340 340 345 346 345 343 339 338 337 335 333 327 322 319 311 305 294 278 252 211 182 178 196 224 234 234 244 335 312 42 138 169 173 177 182 183 183 188 189 188 194 194 198 198 191 194 200 196 198 212 223 214 229 244 248 264 257 257 255 244 241 241 239 235 230 237 250 241 211 210 219 186 166 175 177 169 168 170 170 173 174 174 177 180
348 346 344 342 340 342 345 346 344 342 339 338 337 335 333 328 325 323 314 310 296 265 220 188 176 184 207 229 241 239 237 247 168 124 137 158 172 180 187 188 188 193 194 193 192 191 198 196 192 203 204 210 204 182 225 203 216 238 237 254 261 259 253 237 230 228 229 228 214 215 237 225 205 207 205 178 174 182 183 178 175 174 172 174 176 176 179 181
346 345 343 342 343 344 346 346 343 341 339 337 337 337 333 329 333 334 328 321 304 229 180 170 172 183 215 245 260 254 238 226 222 190 156 162 166 168 184 184 185 193 197 199 194 189 196 194 197 211 215 230 226 163 212 201 203 230 229 233 244 252 236 207 201 211 213 199 190 208 234 228 186 186 189 176 179 187 188 185 181 178 175 175 178 179 181 182
346 344 342 343 345 346 346 345 343 340 338 337 338 338 333 331 347 354 4 13 35 142 148 156 179 189 234 259 257 256 239 224 228 215 186 174 168 165 175 175 178 184 185 194 197 191 195 196 200 214 210 218 243 213 215 213 204 217 223 220 220 235 226 180 168 197 208 175 177 205 231 233 176 161 176 173 183 193 195 192 185 184 180 177 179 180 183 183
346 344 344 346 347 347 346 344 342 340 337 337 339 337 331 331 4 30 56 64 87 129 142 156 193 217 271 275 200 217 221 214 224 213 199 193 181 169 169 172 172 171 174 183 187 188 196 201 203 218 211 203 218 221 217 218 213 210 221 231 216 215 221 194 170 195 219 200 189 205 230 234 172 140 169 174 189 197 201 200 191 188 184 180 181 181 184 182
347 346 347 348 348 347 345 343 342 339 337 338 339 336 327 321 51 73 76 89 103 139 173 197 186 214 266 269 163 210 215 207 210 201 200 203 199 178 163 171 175 171 176 178 183 186 191 201 203 211 218 211 209 213 220 216 210 205 209 232 231 218 223 204 164 171 203 215 209 209 229 242 214 156 175 182 194 199 207 208 195 193 188 184 186 183 184 184
347 347 349 349 348 346 345 344 342 340 339 339 339 334 325 310 178 87 65 140 162 189 221 227 187 213 250 231 213 204 203 201 194 189 196 199 202 192 169 172 174 170 175 174 184 189 185 196 202 205 213 214 209 205 215 214 211 213 205 217 229 223 232 224 186 153 180 211 221 214 222 236 238 227 194 188 196 201 210 213 201 197 192 187 189 189 187 186
346 348 350 349 348 346 344 343 343 343 340 342 346 336 298 269 224 229 231 214 208 210 234 174 188 234 322 204 211 190 134 170 184 186 190 190 193 194 184 180 173 173 181 176 182 188 186 192 200 211 211 205 209 209 215 218 219 230 220 217 225 221 226 230 215 165 186 226 230 229 233 235 237 232 201 191 197 204 210 213 205 199 196 192 191 193 193 191
348 349 350 349 347 345 343 344 346 346 343 347 348 319 276 302 267 219 229 246 239 247 275 253 215 251 293 132 174 208 194 181 195 192 184 180 178 183 187 183 176 181 190 184 179 183 189 202 204 210 212 205 207 211 219 224 224 242 235 223 230 231 224 225 217 180 208 248 238 236 247 248 246 243 228 204 197 203 209 210 206 201 199 197 196 196 195 195
349 349 350 348 346 344 342 344 350 352 354 359 348 328 24 12 339 328 329 283 253 247 261 259 240 248 255 249 77 87 217 204 205 196 179 175 172 175 181 179 181 190 197 190 180 179 193 215 214 208 212 210 208 211 218 226 223 229 237 230 231 234 233 230 216 171 205 249 246 243 253 255 250 249 246 214 196 203 208 209 208 204 203 201 200 198 194 192
349 350 350 347 345 343 341 344 356 6 9 13 10 42 63 16 343 318 315 290 274 250 244 250 246 245 248 248 247 265 284 226 203 190 173 174 179 179 176 180 188 190 191 192 183 185 203 221 216 206 209 212 213 212 213 221 224 225 234 239 239 232 233 234 221 210 229 248 250 249 258 260 255 252 245 217 203 206 210 213 210 206 206 204 201 198 192 187
349 350 349 346 344 341 339 343 3 12 10 16 31 50 29 353 338 309 286 283 288 260 232 233 234 234 234 239 237 229 243 232 207 188 175 180 189 186 180 183 194 191 188 197 194 190 206 220 214 206 205 209 210 206 205 213 222 227 231 234 237 233 233 233 208 203 227 247 258 265 269 265 258 249 241 228 214 210 212 216 215 210 208 207 203 198 192 188
350 350 348 346 343 339 339 343 9 10 353 356 29 30 358 337 335 320 287 271 282 269 234 222 222 230 226 220 205 202 217 227 217 192 178 185 192 187 191 190 192 196 195 199 201 203 213 210 202 205 204 203 202 198 202 212 221 226 230 232 235 233 236 243 214 197 236 243 248 263 270 263 250 241 239 226 207 207 211 211 214 212 209 209 205 199 196 192
350 349 347 347 343 338 338 341 16 358 329 295 12 1 343 332 334 322 298 268 264 259 216 206 212 228 216 193 178 188 208 222 222 204 180 190 195 186 194 197 195 204 201 200 203 214 221 205 186 202 202 199 205 207 208 213 224 226 225 229 236 239 239 244 245 247 256 244 232 239 255 258 243 241 241 218 193 198 198 202 210 208 205 206 204 200 197 196
349 348 347 346 344 341 339 346 359 341 318 313 351 341 331 326 325 305 284 272 258 218 152 179 195 181 179 178 177 179 207 223 217 207 189 194 202 196 194 194 201 210 201 198 207 221 223 208 189 200 199 199 211 218 210 209 224 231 219 221 229 237 241 240 241 243 249 253 234 220 243 259 249 244 235 203 196 197 188 198 207 204 204 203 203 202 197 196
348 348 347 345 344 345 341 327 335 334 325 335 333 329 324 321 315 290 259 262 256 163 128 162 184 160 169 173 173 174 192 196 189 199 198 194 199 207 208 197 196 211 199 192 212 216 212 204 190 195 199 202 213 217 207 204 218 230 217 218 221 225 233 237 241 244 250 262 250 219 235 258 256 247 231 205 205 199 189 197 203 202 204 203 204 205 200 198
346 346 347 344 341 342 330 306 319 332 336 326 322 322 321 318 298 262 259 271 238 118 117 120 112 158 176 166 181 186 125 120 172 190 190 191 196 204 216 208 200 204 197 196 212 202 199 202 192 191 199 204 211 212 203 202 216 227 213 219 223 220 228 233 241 247 249 255 250 230 230 247 250 242 239 228 220 213 205 204 206 205 203 204 206 206 203 201
344 344 346 342 337 339 331 305 298 317 328 321 318 318 314 303 277 242 254 263 180 112 97 132 137 170 156 158 194 210 210 180 199 176 177 188 200 207 223 218 208 208 205 207 217 203 195 206 200 194 203 209 208 209 204 201 213 222 203 202 221 220 225 229 235 244 245 246 246 233 227 240 251 239 229 224 219 222 223 216 213 209 203 203 206 207 205 202
342 342 344 341 334 332 324 302 283 315 326 319 315 314 302 272 245 226 226 244 165 86 98 147 157 166 158 167 199 216 223 221 131 155 179 185 194 207 228 225 218 219 211 210 224 222 198 201 207 203 210 214 206 205 207 204 209 214 205 203 216 217 220 226 229 235 241 242 239 232 229 238 252 243 226 223 218 219 227 225 216 209 204 203 206 207 205 201
341 340 341 339 327 315 314 306 315 326 324 320 317 308 283 231 236 234 216 262 8 63 107 132 142 161 185 207 211 201 209 218 169 165 181 178 185 199 207 210 216 219 211 208 221 224 205 191 204 210 213 214 211 209 207 204 206 212 208 206 216 214 211 222 219 219 236 241 231 226 227 235 245 242 229 230 224 216 224 229 219 207 202 203 205 206 204 201
340 339 341 341 323 303 300 304 318 322 320 320 315 296 253 222 230 231 230 311 344 32 25 28 350 303 272 272 252 202 198 212 196 177 182 181 184 193 197 197 192 196 208 204 207 216 212 204 200 204 208 207 208 208 197 195 202 208 206 203 210 204 194 209 210 211 231 237 230 224 222 230 242 242 234 236 231 222 223 229 227 218 206 201 202 204 202 201
340 341 344 347 330 298 300 307 313 317 321 318 306 271 244 239 229 228 249 269 0 14 347 331 320 306 290 273 240 202 201 204 191 187 192 191 191 195 202 206 199 200 212 202 197 207 210 210 204 202 202 201 205 205 190 191 197 201 202 201 204 199 193 206 210 215 231 230 223 217 217 233 247 244 230 229 229 222 218 222 228 227 217 204 200 203 200 199
341 345 341 335 322 304 311 314 314 317 318 312 292 250 237 234 240 262 262 294 357 349 325 322 320 302 274 253 211 183 214 212 191 188 189 191 198 198 199 207 208 211 220 205 201 202 204 208 203 200 191 188 201 207 197 190 193 200 204 207 212 213 210 211 210 217 228 225 208 198 201 232 238 230 220 219 217 216 221 227 228 227 224 213 202 201 199 198
344 344 332 321 324 322 321 315 314 317 312 300 278 253 236 233 251 280 322 354 350 335 328 320 302 284 258 234 203 187 238 216 192 195 195 195 203 200 197 204 207 210 218 213 203 202 212 217 194 194 192 185 194 203 200 192 194 197 201 211 216 216 223 233 246 246 247 243 212 195 205 231 223 80 156 196 201 208 218 223 221 220 220 216 208 201 198 199
341 339 331 330 334 330 327 319 315 310 297 285 267 248 242 249 275 334 354 353 344 334 329 313 274 255 250 218 187 185 229 244 194 197 201 199 202 202 196 196 204 210 220 221 207 196 213 217 175 184 194 191 190 195 196 196 196 188 196 213 212 209 224 238 249 263 268 253 226 202 218 232 248 257 221 202 200 203 209 213 213 214 212 210 208 201 198 199
335 332 322 320 339 336 328 320 315 298 276 265 260 261 275 279 321 355 341 337 334 326 320 310 281 279 265 227 177 170 206 253 198 198 207 195 189 197 183 131 147 224 291 267 224 203 211 207 166 178 192 190 188 192 196 202 207 194 195 204 199 204 226 239 237 226 224 239 232 217 227 227 228 241 211 206 211 206 205 210 212 211 206 205 204 201 201 201
325 320 298 327 346 340 330 320 310 284 260 254 255 260 288 300 326 338 328 327 322 313 306 292 299 325 303 283 306 89 290 244 185 196 209 189 167 22 4 102 46 4 350 323 248 208 214 209 166 178 190 182 181 192 197 202 211 216 205 191 188 201 210 211 227 225 219 233 236 227 235 235 226 227 194 201 211 212 209 207 210 210 205 205 205 202 204 203
324 315 299 4 349 338 332 317 294 274 261 267 267 264 302 318 326 330 329 325 309 297 292 281 280 294 304 311 318 335 311 294 205 213 218 196 170 37 24 356 7 354 335 275 251 228 221 224 179 178 186 175 177 197 199 194 203 215 216 198 195 208 208 201 212 225 227 235 238 229 230 233 231 228 223 211 205 208 208 204 211 215 210 208 209 206 202 200
332 311 356 7 348 336 330 304 272 288 286 283 299 311 329 328 326 326 325 320 302 282 281 286 287 277 281 297 300 311 310 304 306 265 238 45 74 81 42 8 341 339 334 246 247 255 224 230 207 174 183 181 183 198 200 191 190 200 207 202 198 202 212 212 211 218 231 237 238 238 232 227 211 220 225 224 216 212 212 210 212 216 216 213 212 215 207 198
326 299 357 2 346 334 326 298 272 336 316 330 332 322 333 330 321 320 320 319 304 280 276 280 283 279 276 282 282 294 302 288 292 297 293 40 34 69 40 8 343 321 310 217 221 230 217 223 217 180 181 193 196 193 199 199 191 192 201 200 199 199 203 209 209 211 224 237 238 245 250 240 92 122 198 210 216 216 218 224 220 214 219 218 214 218 212 200
326 323 342 350 341 332 323 304 14 351 332 0 338 322 335 330 318 319 322 325 314 294 281 272 271 273 267 268 274 279 290 291 295 309 37 59 37 35 23 359 341 310 277 214 197 219 294 232 219 203 189 204 203 188 197 204 195 195 204 202 200 204 205 208 207 201 209 226 234 243 258 257 104 122 161 193 225 220 212 220 224 221 223 222 220 222 208 194
338 322 322 338 339 331 325 344 9 351 1 359 337 329 339 332 327 328 329 333 326 318 306 280 270 272 268 270 270 261 263 282 298 309 49 76 55 31 12 358 348 331 294 256 147 92 260 222 218 217 199 203 200 183 195 207 201 201 206 204 206 209 208 212 220 215 211 216 216 224 242 231 129 155 227 242 223 210 193 203 217 226 223 215 225 232 193 176
332 309 310 341 343 334 339 15 0 347 354 346 337 344 352 350 350 345 338 342 343 334 316 299 295 293 286 278 265 257 258 252 237 17 351 75 64 29 13 6 358 4 20 1 355 303 219 208 208 213 197 185 187 185 195 204 206 211 208 204 210 211 208 212 223 230 234 222 213 218 232 203 120 150 199 192 188 187 187 195 195 207 221 217 229 228 158 172
328 315 326 348 346 344 10 23 354 344 350 342 339 349 354 359 9 359 344 343 351 340 317 310 323 312 300 282 254 243 255 260 254 14 86 94 74 39 16 8 6 18 21 360 338 303 249 214 208 211 207 198 193 189 196 199 200 209 211 205 208 210 208 209 217 222 226 225 221 225 227 134 112 144 178 173 177 183 191 197 173 193 227 228 225 206 163 180
337 337 348 343 339 350 13 13 352 347 347 341 339 347 347 350 3 3 352 351 0 345 321 324 346 333 329 327 268 228 235 266 265 237 180 110 74 51 20 6 18 17 356 347 342 303 252 220 223 236 234 224 189 92 3 263 200 199 203 202 203 209 209 208 216 219 216 223 228 228 231 203 150 161 177 176 175 176 194 259 254 219 335 21 106 312 252 207
346 342 349 343 329 338 351 352 351 349 341 336 337 337 337 342 350 358 4 4 1 349 322 334 12 2 349 347 318 248 230 237 226 205 84 33 31 54 38 14 24 9 343 345 358 327 238 198 216 272 348 3 13 23 9 335 208 196 197 196 197 204 209 213 219 219 211 223 228 214 219 229 206 176 173 171 178 228 272 276 276 328 3 356 353 330 304 284
349 336 348 345 321 325 335 335 334 331 329 331 330 324 329 340 348 356 4 342 343 359 344 342 8 2 347 344 332 296 248 224 206 139 47 20 3 349 90 87 46 11 347 355 16 351 262 199 188 244 286 326 343 359 6 347 241 191 194 194 192 197 208 219 226 226 224 233 242 215 212 227 230 221 221 226 242 264 275 280 287 300 307 306 305 299 299 306
340 324 340 341 321 313 316 318 318 317 324 329 326 332 334 338 346 351 341 318 323 5 7 353 357 352 342 340 334 334 2 330 312 60 22 357 352 338 309 128 75 21 358 359 20 0 303 240 80 298 275 237 232 293 329 285 232 222 215 206 199 203 212 220 227 231 237 246 258 260 249 243 240 246 258 263 268 274 282 288 290 292 294 295 296 293 293 300
337 330 333 326 318 313 311 314 313 311 319 322 321 348 342 331 343 347 334 332 342 0 3 356 349 343 337 335 330 335 6 355 341 0 353 335 338 352 334 35 34 8 354 355 10 351 323 53 42 318 274 215 205 217 231 253 256 249 238 226 217 214 214 217 222 226 234 243 251 258 262 256 244 254 272 280 286 288 288 290 291 292 293 295 294 292 293 296
326 325 325 311 311 315 313 317 319 310 313 326 329 343 335 327 342 342 337 25 77 349 348 345 337 333 325 322 320 317 337 339 321 317 324 315 311 325 321 326 342 341 342 352 351 331 320 329 45 285 247 206 181 192 218 251 269 259 245 230 223 218 216 217 217 218 222 230 240 247 252 252 248 254 260 262 266 269 269 274 279 281 284 287 289 291 293 292
325 317 322 303 297 308 311 314 316 310 315 331 325 322 319 320 333 333 333 103 167 269 325 327 320 321 312 306 318 320 319 315 305 302 303 295 289 291 287 289 301 305 308 321 322 312 310 309 283 239 238 200 158 179 224 249 256 253 242 227 220 217 218 219 217 219 221 222 231 240 246 253 252 251 255 255 256 259 261 265 270 272 274 277 280 282 283 283
Height
820 818 816 814 813 811 809 808 806 804 802 800 798 797 795 793 791 789 788 786 786 784 782 781 779 778 777 775 774 772 771 770 769 770 764 751 750 754 755 756 757 760 763 765 767 768 770 772 772 773 775 776 775 773 774 772 770 778 786 792 788 779 774 769 769 768 768 766 761 760 758 764 770 764 759 760 764 769 772 772 771 772 771 772 775 779 785 792
820 818 816 814 813 810 809 807 805 803 802 800 798 796 793 792 790 788 786 785 784 783 781 780 778 777 775 774 773 772 770 768 767 763 751 745 748 751 752 755 756 758 761 763 764 764 767 770 769 772 774 776 774 771 775 772 771 780 784 788 782 771 767 762 764 763 763 765 760 757 757 760 764 763 761 767 772 771 776 777 774 778 777 776 777 782 788 791
820 818 816 814 812 810 808 806 804 802 800 799 797 795 792 790 788 786 784 782 781 781 780 778 777 776 775 773 772 772 770 768 764 753 742 741 745 746 750 753 753 756 759 760 762 762 764 767 768 771 774 775 772 772 776 773 773 776 778 788 777 763 764 760 760 761 759 759 759 758 757 759 759 758 762 767 772 773 776 777 777 781 781 779 779 782 788 792
820 818 816 813 812 809 807 805 803 801 799 798 795 793 791 788 786 785 782 781 779 778 777 777 776 774 774 772 772 771 770 768 756 741 738 740 741 743 748 749 751 754 757 759 761 762 763 765 767 769 772 775 771 771 776 773 772 772 775 782 769 760 767 762 758 759 756 756 758 759 759 762 757 756 762 766 774 777 771 767 770 775 777 778 779 781 787 791
820 817 815 813 811 809 806 804 802 800 799 796 794 791 788 786 784 782 780 779 777 776 775 775 774 773 773 772 772 771 773 768 747 735 739 740 740 743 745 747 750 752 755 758 759 761 762 764 767 769 772 773 772 774 776 768 766 771 771 770 763 761 767 762 757 757 756 756 758 760 762 760 755 758 762 765 775 772 760 757 759 765 769 772 776 780 785 789
819 817 815 812 810 808 805 803 801 799 797 794 792 789 786 784 781 780 778 776 775 774 773 773 772 772 772 771 772 772 773 762 740 737 741 739 741 743 744 747 749 752 754 756 757 758 761 763 768 772 772 770 772 774 771 764 764 774 770 763 763 762 764 761 756 757 756 758 761 760 757 754 758 763 758 761 767 758 751 750 753 759 764 769 773 778 783 786
819 816 814 812 809 807 804 802 799 797 795 792 790 787 784 781 779 777 775 774 773 772 771 771 771 771 770 771 772 771 769 752 736 740 741 739 742 741 744 746 749 754 753 753 754 756 759 763 768 769 771 771 770 769 766 763 765 773 771 762 762 761 761 759 756 756 755 758 758 753 753 755 763 763 755 759 758 751 750 748 751 757 762 768 773 777 781 784
819 817 814 811 809 806 803 801 798 795 793 790 787 784 781 779 776 774 772 771 769 769 769 768 769 769 770 772 770 767 761 745 736 740 739 739 741 741 745 747 750 752 750 750 750 753 757 762 765 764 771 769 764 765 763 766 769 771 770 762 760 760 759 756 755 755 754 755 752 751 757 757 756 755 755 758 753 749 751 750 752 759 764 769 773 777 780 784
819 816 813 811 808 805 802 799 796 794 791 788 785 782 779 776 774 772 770 767 766 766 765 766 767 768 770 770 768 764 750 736 736 739 737 738 739 740 743 745 749 749 748 748 746 750 754 759 760 758 765 763 760 763 762 770 772 765 765 762 761 761 757 755 755 754 754 751 750 755 758 753 748 752 757 754 748 748 750 753 756 761 767 770 773 776 779 782
819 816 813 810 807 804 801 798 795 792 789 786 783 779 776 774 771 768 766 764 763 762 762 764 765 766 770 767 766 760 741 733 737 736 735 737 737 738 740 741 744 745 746 746 745 748 748 753 753 750 757 759 759 762 761 767 763 756 760 760 759 760 755 754 756 753 752 749 749 755 758 751 744 754 762 749 743 748 752 757 758 762 768 769 772 774 777 781
818 815 813 809 806 803 799 796 793 790 787 783 780 777 774 771 768 765 763 761 760 760 760 761 763 765 768 766 762 751 735 733 736 734 735 735 735 737 737 739 740 742 742 743 744 744 744 746 745 750 760 758 758 762 759 757 755 754 759 762 759 757 755 753 754 751 750 750 746 749 755 750 746 756 759 745 741 747 753 759 759 763 767 768 771 773 776 779
818 815 812 809 806 802 798 795 791 788 784 781 778 774 772 768 764 762 760 759 757 758 758 759 762 763 766 764 753 739 733 735 735 734 735 734 736 736 736 739 739 740 740 740 742 742 744 744 744 755 758 754 760 765 758 749 753 757 759 767 763 757 756 751 750 747 748 750 740 745 760 758 753 756 748 740 742 746 751 757 759 762 764 767 769 772 775 776
818 815 812 808 805 801 797 793 789 786 782 778 775 772 769 765 762 760 758 756 755 755 756 758 760 762 765 757 739 732 734 735 735 735 735 735 737 737 738 739 739 741 740 739 740 742 745 744 746 751 750 752 759 757 751 746 754 760 759 766 765 763 759 745 741 742 744 745 735 748 772 764 749 748 740 737 741 746 752 755 757 759 761 765 767 770 773 774
817 814 811 807 804 800 796 792 788 783 779 776 773 770 767 763 762 759 757 755 754 754 755 757 760 763 762 746 731 731 733 734 736 735 736 736 736 738 738 739 740 741 741 741 741 743 745 744 746 749 748 750 750 748 753 753 756 760 761 764 766 771 760 738 736 742 745 743 733 750 774 760 743 742 737 735 740 745 751 753 754 757 759 762 765 768 771 771
817 813 810 806 803 799 794 790 786 781 777 774 771 768 765 763 761 759 758 755 754 754 756 759 761 761 757 741 729 729 731 733 733 733 735 735 735 736 737 738 740 740 742 743 742 743 745 744 748 753 751 748 749 756 762 760 757 759 767 769 765 767 757 739 737 741 745 742 735 752 770 757 741 738 734 734 739 743 749 751 752 754 756 760 762 765 768 769
816 812 809 805 802 798 794 789 785 780 775 772 769 767 764 763 761 760 759 757 757 757 758 761 760 759 754 738 727 727 728 728 728 730 733 734 734 734 736 739 740 741 743 743 744 744 744 746 748 750 751 752 758 764 763 765 763 759 766 769 760 760 758 747 739 735 737 741 740 750 762 755 743 737 733 734 738 742 747 749 750 753 754 757 760 762 765 767
815 811 807 804 801 797 793 788 784 779 774 771 768 765 763 762 761 761 760 760 760 759 760 759 758 759 747 729 726 726 723 723 724 727 730 732 734 734 735 738 739 741 742 743 745 745 746 748 750 751 752 755 757 761 769 774 770 762 763 764 756 753 755 751 746 735 733 742 745 746 753 751 741 736 735 735 736 741 746 747 748 751 753 755 758 759 761 764
814 811 806 803 799 796 791 787 783 777 774 770 766 764 763 762 761 761 761 761 761 761 761 758 758 758 739 723 725 722 717 720 722 724 726 729 732 734 734 736 737 740 743 746 746 747 750 750 752 757 757 757 755 758 770 769 762 760 760 762 759 754 755 753 747 739 736 743 746 746 751 749 739 734 735 735 734 739 743 743 745 748 751 754 756 757 759 761
814 810 806 802 798 794 790 786 781 777 773 769 766 764 762 761 761 761 761 759 759 755 750 749 749 743 729 721 719 717 717 719 721 722 723 725 730 732 733 734 736 741 747 751 750 747 750 753 757 761 758 756 753 752 757 754 750 753 750 754 758 754 753 747 741 736 737 747 748 746 748 744 739 735 734 734 733 737 740 739 742 745 748 751 753 754 755 758
814 810 806 801 797 793 789 786 781 777 773 769 766 763 761 762 756 754 757 756 751 743 735 737 737 728 723 720 716 717 719 719 720 719 720 723 726 729 732 733 738 743 745 748 750 744 747 757 757 755 751 747 747 747 747 745 746 750 749 751 752 751 750 741 737 734 735 749 749 741 743 741 738 736 731 731 732 736 739 740 741 743 745 748 749 751 752 755
813 810 805 800 797 792 789 785 781 777 774 770 768 764 767 771 765 761 761 750 739 737 733 729 730 726 721 718 716 718 719 719 718 715 718 720 721 729 732 732 741 746 741 740 743 742 746 754 748 743 742 739 742 744 745 746 748 753 754 752 751 750 747 737 736 736 735 748 749 739 743 743 737 734 727 726 733 737 736 738 741 741 742 744 746 748 749 752
813 809 804 800 796 792 788 785 782 778 775 773 771 770 774 778 776 775 772 754 734 732 731 724 724 723 716 716 717 719 721 722 720 714 715 717 718 725 728 730 739 741 736 735 741 747 751 748 739 735 735 737 740 741 745 749 750 755 754 754 753 745 743 739 735 736 736 745 748 741 744 743 733 729 726 725 731 732 729 731 734 737 740 741 743 745 747 750
813 808 804 799 794 791 787 784 783 779 777 776 774 776 778 779 778 777 776 763 737 721 720 719 718 717 714 716 715 719 723 722 721 714 710 715 717 718 722 728 733 733 733 734 737 747 749 739 730 729 731 737 742 742 747 751 752 754 752 754 753 743 745 748 740 738 738 741 744 742 744 741 732 728 725 722 724 725 724 725 727 730 735 737 738 741 744 748
812 807 804 799 794 790 785 784 783 780 780 779 777 778 779 778 777 776 772 761 737 714 707 707 709 709 708 709 710 716 720 716 715 711 705 711 714 714 718 721 727 730 728 727 730 736 736 725 720 725 730 736 744 746 748 753 753 751 748 750 750 743 744 746 740 739 741 739 738 742 752 744 732 733 728 717 719 723 723 725 727 728 730 733 735 737 740 743
811 808 803 799 794 788 785 784 782 782 781 778 779 779 779 778 776 776 772 757 734 711 701 701 704 704 701 705 708 708 713 712 708 704 701 705 708 710 715 714 719 727 723 723 729 731 726 716 716 726 730 735 744 745 744 749 752 749 744 743 744 743 743 742 742 745 753 753 737 740 765 756 729 729 726 717 722 726 724 727 730 730 729 732 734 735 737 739
811 807 802 799 795 789 784 782 782 784 779 777 779 778 778 778 774 776 772 755 728 702 698 702 701 700 698 703 704 704 715 710 697 697 698 701 701 703 713 712 711 718 717 720 726 725 719 713 717 727 730 736 743 741 738 741 751 750 738 734 739 742 743 744 746 751 760 759 736 733 762 762 736 727 721 720 729 729 726 729 729 729 730 731 732 733 734 735
810 806 802 798 795 792 787 783 785 784 778 779 779 777 778 775 774 776 767 750 719 690 694 703 699 697 697 698 698 705 715 700 689 696 694 697 699 697 710 712 710 712 707 717 729 720 712 715 721 726 730 737 740 738 734 735 747 746 729 728 736 740 745 745 747 752 751 748 739 734 749 761 751 733 719 720 730 731 728 730 728 726 728 728 729 729 729 731
809 806 802 797 794 794 791 788 787 783 782 782 778 778 777 773 775 772 764 748 708 680 689 698 696 695 694 696 696 697 698 690 693 697 687 694 698 698 709 707 706 710 701 713 728 714 707 715 721 724 729 732 730 728 726 730 742 737 723 728 734 737 742 742 746 750 744 749 756 743 741 759 757 734 720 720 729 733 729 726 725 723 724 724 725 724 724 725
808 804 801 797 792 792 791 789 787 783 783 781 778 778 773 774 774 764 763 745 696 676 689 692 695 697 694 700 700 694 690 690 695 691 684 693 694 695 706 701 701 708 701 705 716 707 703 707 710 719 726 724 721 719 718 727 735 727 723 731 734 735 738 740 745 747 747 757 761 745 740 756 754 732 723 726 729 732 724 717 717 716 717 719 719 719 719 720
806 803 800 797 792 791 789 788 786 784 782 779 777 775 772 774 768 759 762 733 687 682 691 689 695 698 696 702 702 697 695 692 690 689 689 693 693 695 699 695 697 705 704 705 709 703 698 699 703 711 716 712 712 714 714 719 725 722 726 735 738 737 737 740 741 744 757 761 751 741 736 748 753 734 720 721 720 719 716 711 710 709 711 713 713 714 714 716
804 801 798 796 793 791 789 785 783 782 781 777 775 772 771 768 758 754 745 709 687 693 692 692 698 695 697 701 697 695 696 693 689 692 695 693 697 702 701 701 703 707 711 710 710 705 700 706 707 704 703 704 710 715 713 714 718 723 730 738 745 745 744 749 748 751 767 763 743 733 730 742 751 732 714 708 702 702 706 706 704 705 707 708 708 708 708 710
802 798 795 793 792 791 789 785 782 781 779 776 773 769 766 763 754 746 723 694 698 707 699 701 702 696 698 698 693 691 693 693 689 690 693 693 696 698 698 700 701 711 717 711 711 709 704 705 704 701 699 700 712 720 719 719 720 726 731 739 753 757 761 769 764 759 764 754 734 726 729 737 734 717 707 701 694 693 696 695 695 697 700 701 702 702 702 705
800 795 792 791 790 790 789 785 782 781 778 775 772 764 761 761 749 731 713 701 710 715 707 707 704 699 701 697 691 688 687 689 686 687 689 689 693 694 693 690 687 699 707 705 710 713 710 706 700 704 701 696 705 717 725 726 723 727 730 738 751 757 769 779 768 759 757 744 727 720 729 736 724 707 698 694 691 687 686 687 688 688 691 694 695 696 698 700
797 793 791 790 790 789 787 785 782 781 778 774 769 761 761 761 740 719 716 717 719 718 713 711 707 702 698 692 687 684 687 687 681 684 688 687 692 693 693 690 684 689 694 698 703 705 714 713 698 697 699 694 698 703 710 716 719 722 719 726 738 740 752 763 755 752 749 736 726 726 735 737 726 706 687 681 683 681 682 682 681 683 683 685 688 690 694 696
796 793 791 789 790 788 786 784 781 780 778 772 765 760 759 754 734 721 725 729 728 725 719 713 709 706 697 688 686 684 687 686 679 681 685 685 688 687 687 688 684 684 690 697 696 692 703 701 681 681 685 686 696 695 692 706 720 717 710 721 730 723 728 738 735 731 732 732 728 727 729 717 704 694 681 678 680 678 680 678 677 681 679 679 684 686 689 691
795 792 790 789 789 787 785 783 780 779 777 770 765 759 750 740 731 731 735 737 736 733 727 714 702 703 698 686 686 687 685 684 681 682 682 680 681 681 681 683 681 681 686 691 687 686 698 693 673 677 684 681 689 690 687 700 712 711 714 721 715 707 715 732 736 727 731 744 732 719 722 711 701 697 684 682 685 680 680 678 676 678 676 678 683 683 684 686
795 792 790 788 787 785 783 781 779 777 773 769 766 756 744 735 733 738 741 740 740 736 734 724 706 703 701 690 687 690 688 686 683 684 681 677 683 688 686 686 687 686 687 688 681 674 685 689 675 677 689 682 677 684 687 687 692 704 716 711 702 707 714 724 740 739 743 752 731 713 719 717 716 711 687 682 689 685 681 679 676 676 677 680 681 680 681 680
797 793 789 787 786 784 781 779 777 775 770 767 764 754 747 743 741 744 744 744 744 739 737 734 718 709 708 703 696 694 693 690 683 683 679 675 687 699 696 694 693 690 688 691 687 671 673 688 683 676 684 681 674 686 695 687 682 691 698 692 700 724 728 727 741 744 743 747 732 716 714 710 711 706 689 686 688 683 680 679 677 677 677 678 678 677 678 677
799 793 786 785 786 782 780 778 774 771 768 764 759 753 750 751 750 750 750 749 748 743 739 733 723 716 715 713 708 701 698 694 687 682 680 682 693 701 701 700 698 694 690 690 688 677 673 686 689 676 673 678 681 689 698 696 687 687 690 689 695 710 717 720 727 728 730 737 731 722 716 708 697 687 684 686 682 678 678 677 677 675 672 673 673 672 674 676
800 794 786 785 786 782 778 776 771 769 769 765 762 759 758 758 757 755 755 753 749 744 740 733 727 724 720 717 713 708 704 700 695 689 687 693 701 704 705 705 702 698 693 690 687 681 678 684 690 680 671 678 686 684 685 689 691 694 699 699 699 699 702 708 711 709 715 727 728 726 721 704 681 670 673 677 674 673 673 672 673 671 667 667 667 667 668 671
799 793 786 786 787 782 776 772 769 768 769 768 768 767 765 764 764 760 757 755 750 743 738 735 733 729 725 721 717 712 709 704 698 696 696 700 704 707 707 707 706 701 695 693 689 686 685 685 687 684 679 681 681 671 669 674 679 687 694 695 697 699 702 715 721 708 704 714 717 721 723 701 672 664 667 667 667 667 666 668 668 666 664 663 662 662 663 666
799 793 788 788 788 783 776 771 770 771 771 773 773 770 768 767 767 763 759 758 753 745 739 736 733 729 726 723 718 714 714 710 704 701 702 705 708 711 709 707 705 699 694 692 688 687 688 686 686 684 679 677 670 661 664 666 667 677 683 683 687 691 696 713 723 710 704 709 705 709 720 700 668 662 664 663 663 661 659 662 664 663 661 659 659 658 658 663
802 798 792 791 790 783 777 775 775 774 774 775 773 770 770 770 769 766 763 763 760 753 748 740 732 729 725 722 720 717 715 715 711 707 707 710 713 713 711 707 703 697 694 693 692 691 691 691 692 687 676 670 664 659 662 661 664 675 678 674 679 682 684 693 698 695 701 707 704 713 725 701 670 662 663 661 660 658 657 658 660 661 658 657 658 658 660 664
804 797 791 792 790 783 781 784 785 782 779 777 774 772 772 771 772 772 769 769 767 763 759 748 738 735 730 725 723 718 717 718 715 711 711 713 714 714 711 708 705 701 701 703 700 696 695 692 693 696 696 694 689 683 678 670 668 674 672 670 673 674 678 684 685 688 700 701 697 712 720 696 672 667 666 663 662 661 659 655 656 659 659 658 659 660 663 666
804 796 791 791 789 786 785 789 791 788 784 781 777 775 774 773 773 775 774 774 773 771 767 757 749 744 735 728 724 718 717 718 716 715 714 714 715 715 712 710 708 705 706 707 702 698 697 691 688 695 702 704 701 697 688 677 672 673 669 667 669 670 676 684 688 697 708 703 694 703 705 688 675 674 671 668 666 665 662 657 655 657 658 659 661 663 665 666
807 801 797 795 789 786 787 788 790 790 788 786 782 778 777 776 775 775 776 777 777 775 770 762 757 752 743 735 728 721 718 717 716 717 717 716 717 716 714 712 710 709 709 706 700 697 698 694 691 696 696 693 694 693 684 674 672 674 672 671 672 670 671 678 688 696 700 701 700 697 693 689 685 681 676 671 667 667 665 661 658 657 658 660 662 664 664 665
810 807 807 807 799 790 789 788 788 791 789 787 785 782 779 778 776 776 778 780 780 780 775 766 765 765 759 750 738 727 723 722 721 722 722 720 718 716 714 713 711 711 710 704 699 698 700 699 697 700 700 695 694 692 686 679 675 673 673 676 677 675 673 678 686 686 686 698 704 692 687 694 689 679 676 673 669 669 667 663 660 659 660 661 661 662 662 661
813 811 810 813 810 801 796 793 791 791 788 785 784 783 781 779 778 780 782 781 781 782 779 773 772 774 770 764 753 738 731 729 727 728 728 726 723 718 714 713 713 712 709 705 702 703 705 701 697 699 702 698 693 691 689 687 685 682 680 680 680 680 681 684 686 681 681 694 698 687 687 694 686 675 673 671 668 669 666 662 658 657 659 659 660 661 660 657
816 814 809 810 811 805 800 797 794 791 787 785 784 783 783 782 781 781 781 781 783 784 783 781 779 779 774 768 761 751 744 741 740 739 737 734 730 724 719 717 715 712 711 709 708 708 708 705 703 704 703 699 696 694 692 692 693 692 688 686 686 685 685 686 686 682 683 689 688 684 690 692 682 675 671 666 664 665 663 661 660 659 660 660 660 661 658 655
820 819 816 814 811 805 799 796 793 790 786 784 784 783 785 784 782 781 778 779 786 788 786 784 783 780 777 772 767 761 756 755 754 749 745 742 735 729 726 724 721 719 717 715 713 711 711 712 710 707 706 702 697 695 695 695 696 696 692 689 688 689 689 689 689 687 690 692 688 687 694 692 679 672 670 667 666 666 667 668 666 664 662 661 660 659 656 655
822 821 821 821 815 806 800 796 793 790 784 782 784 785 786 784 783 783 779 780 789 792 788 787 785 780 776 772 770 767 761 760 758 750 746 746 740 736 734 730 729 729 724 721 720 716 714 714 710 709 711 704 697 698 698 695 696 698 694 691 690 690 689 688 687 687 689 692 693 692 695 690 678 670 670 670 669 671 672 671 669 666 663 662 661 659 657 656
821 820 820 823 817 806 801 796 792 790 786 784 786 787 786 784 782 784 782 780 784 786 783 784 785 781 776 772 770 767 762 760 757 750 747 745 740 738 737 732 731 733 731 727 725 720 719 718 712 712 714 704 697 701 699 700 708 705 690 683 684 685 685 684 683 682 681 684 690 691 686 679 671 669 671 672 670 670 669 667 667 666 664 662 661 659 657 655